Tracking 25949 objects as of 8-Aug-2022
HD Live streaming from Space Station
objects crossing your sky now

COSMOS 1275 DEB

Track COSMOS 1275 DEB now!
10-day predictions


NORAD ID: 12779
Int'l Code: 1981-053DV
Perigee: 627.9 km
Apogee: 638.1 km
Inclination: 82.6 °
Period: 97.2 minutes
Semi major axis: 7003 km
RCS: 0.0961 m2 (small)
Launch date: June 4, 1981
Source: Commonwealth of Independent States (former USSR) (CIS)
Launch site: PLESETSK MISSILE AND SPACE COMPLEX (PKMTR)

Note: This is SATELLITE DEBRIS
aabbcc
Your satellite tracking list
Your tracking list is empty




NASA's NSSDC Master Catalog

Two Line Element Set (TLE):
1 12779U 81053DV  22220.27744184  .00015045  00000-0  19320-2 0  9990
2 12779  82.5545  64.1916 0007344 297.1421  62.9043 14.81098272127824
Source of the keplerian elements: AFSPC